Date String (YYYY-MM-DD hh:mm:ss) UTC,Instrument flags,absolute air pressure of the measurement (hPa),sample flow rate (lpm),inlet stack bypass flow (lpm),air temperature of the measurement (°C),ambient temperature measured by the external sensor (°C),aerosol sample conditioner tube jacket temperature (°C),OPC LED temperature (°C),internal box temperature (°C),relative humidity of the measurement (%),span deviation,mass concentration of particles derived from Lorenz-Mie calculation of OPC scattering (μg/m³),mass concentration of particles derived from Lorenz-Mie calculation of OPC scattering (μg/m³),mass concentration of particles derived from Lorenz-Mie calculation of OPC scattering (μg/m³)
DateTimeUTC,F1_M11,P_M11,Q1_M11,Q2_M11,T1_M11,T2_M11,T3_M11,T4_M11,T5_M11,U1_M11,ZSPAN_M11,X0_M11,X2_M11,X1_M11
2024-05-28 22:00:00,SystemResetWarning,0832.6,4.99,000.00,030.0,029.2,000.0,038.1,031.6,016.9,0000.0,0019.01,0004.31,0002.85
2024-05-28 22:01:00,SystemResetWarning,0832.6,5.00,000.00,029.7,027.1,000.0,038.1,030.6,017.8,0000.0,0020.77,0004.33,0002.86
2024-05-28 22:02:00,SystemResetWarning,0832.6,5.01,000.00,029.5,026.9,000.0,038.1,030.4,018.3,0000.0,0023.30,0004.39,0002.85
2024-05-28 22:03:00,SystemResetWarning,0832.6,5.02,000.00,029.4,027.3,000.0,038.0,030.6,017.9,0000.0,0023.77,0004.46,0002.87
2024-05-28 22:04:00,SystemResetWarning,0832.6,5.00,000.00,029.4,027.6,000.0,038.0,030.8,017.2,0000.0,0023.94,0004.47,0002.86
2024-05-28 22:05:00,SystemResetWarning,0832.6,5.00,000.00,029.5,028.0,000.0,037.9,031.0,016.7,0000.0,0023.21,0004.45,0002.85
2024-05-28 22:06:00,SystemResetWarning,0832.6,5.00,000.00,029.5,028.3,000.0,037.9,031.2,016.8,0000.0,0022.61,0004.41,0002.86
2024-05-28 22:07:00,SystemResetWarning,0832.6,5.00,000.00,029.6,028.6,000.0,037.9,031.3,016.2,0000.0,0023.40,0004.41,0002.84
2024-05-28 22:08:00,SystemResetWarning,0832.6,4.99,000.00,029.7,028.8,000.0,037.9,031.4,016.1,0000.0,0023.78,0004.39,0002.84
2024-05-28 22:09:00,SystemResetWarning,0832.6,4.99,000.00,029.7,029.0,000.0,037.9,031.5,016.8,0000.0,0023.37,0004.38,0002.85
2024-05-28 22:10:00,SystemResetWarning,0832.6,5.00,000.00,029.8,029.2,000.0,038.0,031.6,016.7,0000.0,0021.76,0004.29,0002.85
2024-05-28 22:11:00,SystemResetWarning,0832.7,5.00,000.00,029.9,029.4,000.0,038.0,031.7,016.1,0000.0,0020.89,0004.24,0002.84
2024-05-28 22:12:00,SystemResetWarning,0832.6,5.00,000.00,030.0,029.5,000.0,038.0,031.8,016.2,0000.0,0019.72,0004.24,0002.83
2024-05-28 22:13:00,SystemResetWarning,0832.6,5.01,000.00,030.0,029.5,000.0,038.1,031.8,016.3,0000.0,0016.39,0004.18,0002.83
2024-05-28 22:14:00,SystemResetWarning,0832.6,4.98,000.00,029.9,027.8,000.0,038.2,030.9,016.3,0000.0,0014.93,0004.09,0002.81
2024-05-28 22:15:00,SystemResetWarning,0832.6,5.01,000.00,029.4,025.7,000.0,038.2,029.8,016.8,0000.0,0015.46,0004.04,0002.82
2024-05-28 22:16:00,SystemResetWarning,0832.5,5.02,000.00,029.1,025.9,000.0,038.1,029.8,016.7,0000.0,0015.11,0004.02,0002.81
2024-05-28 22:17:00,SystemResetWarning,0832.5,4.99,000.00,029.1,026.4,000.0,037.9,030.1,017.2,0000.0,0016.43,0004.07,0002.81
2024-05-28 22:18:00,SystemResetWarning,0832.5,5.00,000.00,029.1,026.9,000.0,037.8,030.4,018.0,0000.0,0016.04,0004.00,0002.80
2024-05-28 22:19:00,SystemResetWarning,0832.5,5.00,000.00,029.1,027.3,000.0,037.8,030.6,018.4,0000.0,0016.55,0003.96,0002.80
2024-05-28 22:20:00,SystemResetWarning,0832.5,5.00,000.00,029.2,027.7,000.0,037.7,030.8,017.0,0000.0,0017.76,0003.97,0002.78
2024-05-28 22:21:00,SystemResetWarning,0832.5,5.00,000.00,029.3,028.1,000.0,037.7,030.9,017.0,0000.0,0018.61,0004.00,0002.78
2024-05-28 22:22:00,SystemResetWarning,0832.6,5.00,000.00,029.4,028.4,000.0,037.7,031.1,017.4,0000.0,0019.79,0003.98,0002.77
2024-05-28 22:23:00,SystemResetWarning,0832.5,5.00,000.00,029.4,028.6,000.0,037.7,031.2,016.7,0000.0,0019.85,0003.98,0002.76
2024-05-28 22:24:00,SystemResetWarning,0832.5,5.00,000.00,029.5,028.9,000.0,037.8,031.3,017.3,0000.0,0021.21,0003.98,0002.75
2024-05-28 22:25:00,SystemResetWarning,0832.5,5.00,000.00,029.6,029.0,000.0,037.8,031.4,017.3,0000.0,0022.44,0004.01,0002.75
2024-05-28 22:26:00,SystemResetWarning,0832.5,5.00,000.00,029.7,029.2,000.0,037.8,031.5,016.2,0000.0,0022.28,0004.04,0002.75
2024-05-28 22:27:00,SystemResetWarning,0832.5,5.00,000.00,029.7,029.3,000.0,037.9,031.6,015.6,0000.0,0022.07,0004.03,0002.75
2024-05-28 22:28:00,SystemResetWarning,0832.5,5.01,000.00,029.8,029.4,000.0,037.9,031.7,015.9,0000.0,0021.08,0004.03,0002.75
2024-05-28 22:29:00,SystemResetWarning,0832.5,5.00,000.00,029.9,029.6,000.0,037.9,031.8,016.1,0000.0,0021.03,0004.05,0002.75
2024-05-28 22:30:00,SystemResetWarning,0832.5,5.00,000.00,030.0,029.6,000.0,038.0,031.8,016.2,0000.0,0020.25,0004.05,0002.73
2024-05-28 22:31:00,SystemResetWarning,0832.5,4.99,000.00,029.8,027.9,000.0,038.1,031.0,015.7,0000.0,0020.31,0004.05,0002.73
2024-05-28 22:32:00,SystemResetWarning,0832.4,5.01,000.00,029.4,025.6,000.0,038.1,029.8,016.0,0000.0,0020.71,0004.09,0002.72
2024-05-28 22:33:00,SystemResetWarning,0832.4,5.01,000.00,029.1,025.8,000.0,038.0,029.8,016.1,0000.0,0018.32,0004.18,0002.74
2024-05-28 22:34:00,SystemResetWarning,0832.5,4.99,000.00,029.0,026.3,000.0,037.9,030.1,016.8,0000.0,0017.99,0004.19,0002.76
2024-05-28 22:35:00,SystemResetWarning,0832.6,5.01,000.00,029.1,026.8,000.0,037.8,030.3,017.2,0000.0,0017.46,0004.17,0002.76
2024-05-28 22:36:00,SystemResetWarning,0832.5,5.00,000.00,029.1,027.3,000.0,037.7,030.5,017.0,0000.0,0018.07,0004.14,0002.76
2024-05-28 22:37:00,SystemResetWarning,0832.5,5.00,000.00,029.2,027.7,000.0,037.7,030.7,017.3,0000.0,0018.52,0004.10,0002.74
2024-05-28 22:38:00,SystemResetWarning,0832.5,5.00,000.00,029.2,028.1,000.0,037.6,030.9,016.3,0000.0,0018.45,0004.11,0002.74
2024-05-28 22:39:00,SystemResetWarning,0832.6,5.00,000.00,029.3,028.4,000.0,037.6,031.0,016.1,0000.0,0018.56,0004.07,0002.73
2024-05-28 22:40:00,SystemResetWarning,0832.5,5.00,000.00,029.4,028.6,000.0,037.6,031.1,016.2,0000.0,0018.82,0004.06,0002.73
2024-05-28 22:41:00,SystemResetWarning,0832.6,5.00,000.00,029.5,028.8,000.0,037.7,031.3,016.8,0000.0,0018.64,0004.05,0002.74
2024-05-28 22:42:00,SystemResetWarning,0832.6,4.99,000.00,029.5,029.0,000.0,037.7,031.3,016.8,0000.0,0019.90,0004.20,0002.76
2024-05-28 22:43:00,SystemResetWarning,0832.6,5.00,000.00,029.6,029.1,000.0,037.7,031.5,016.3,0000.0,0019.80,0004.17,0002.75
2024-05-28 22:44:00,SystemResetWarning,0832.7,5.00,000.00,029.7,029.3,000.0,037.8,031.5,016.4,0000.0,0019.71,0004.15,0002.72
2024-05-28 22:45:00,SystemResetWarning,0832.6,5.01,000.00,029.8,029.4,000.0,037.8,031.6,016.9,0000.0,0020.50,0004.14,0002.70
2024-05-28 22:46:00,SystemResetWarning,0832.6,5.01,000.00,029.8,029.5,000.0,037.9,031.7,016.7,0000.0,0020.21,0004.18,0002.68
2024-05-28 22:47:00,SystemResetWarning,0832.6,4.98,000.00,029.9,029.6,000.0,037.9,031.8,016.4,0000.0,0020.33,0004.23,0002.67
2024-05-28 22:48:00,SystemResetWarning,0832.6,5.00,000.00,030.0,029.7,000.0,038.0,031.8,015.3,0000.0,0019.06,0004.26,0002.68
2024-05-28 22:49:00,SystemResetWarning,0832.6,4.99,000.00,029.9,028.2,000.0,038.1,031.1,015.3,0000.0,0019.97,0004.26,0002.68
2024-05-28 22:50:00,SystemResetWarning,0832.5,5.02,000.00,029.5,026.6,000.0,038.1,030.4,016.0,0000.0,0020.73,0004.28,0002.68
2024-05-28 22:51:00,SystemResetWarning,0832.6,5.00,000.00,029.4,026.9,000.0,038.0,030.4,016.2,0000.0,0021.18,0004.32,0002.68
2024-05-28 22:52:00,SystemResetWarning,0832.5,5.01,000.00,029.4,027.3,000.0,037.9,030.6,016.2,0000.0,0022.06,0004.35,0002.69
2024-05-28 22:53:00,SystemResetWarning,0832.5,5.01,000.00,029.4,027.7,000.0,037.9,030.9,015.9,0000.0,0020.69,0004.28,0002.68
2024-05-28 22:54:00,SystemResetWarning,0832.5,5.00,000.00,029.5,028.0,000.0,037.9,031.0,016.8,0000.0,0019.62,0004.20,0002.67
2024-05-28 22:55:00,SystemResetWarning,0832.5,5.00,000.00,029.5,028.3,000.0,037.9,031.2,016.3,0000.0,0020.81,0004.24,0002.69
2024-05-28 22:56:00,SystemResetWarning,0832.6,5.00,000.00,029.6,028.6,000.0,037.9,031.3,015.5,0000.0,0021.05,0004.22,0002.70
2024-05-28 22:57:00,SystemResetWarning,0832.6,5.01,000.00,029.7,028.9,000.0,037.9,031.4,015.6,0000.0,0021.31,0004.17,0002.71
2024-05-28 22:58:00,SystemResetWarning,0832.5,5.00,000.00,029.7,029.1,000.0,037.9,031.5,015.4,0000.0,0021.73,0004.13,0002.74
2024-05-28 22:59:00,SystemResetWarning,0832.5,5.00,000.00,029.8,029.2,000.0,037.9,031.6,015.6,0000.0,0021.21,0004.13,0002.74
